Time,TemperatureF,DewpointF,PressureIn,WindDirection,WindDirectionDegrees,WindSpeedMPH,WindSpeedGustMPH,Humidity,HourlyPrecipIn,Conditions,Clouds,dailyrainin,SolarRadiationWatts/m^2,SoftwareType,DateUTC
2013-03-15 00:00:00,37.7,29.8,30.18,WSW,244,0.0,0.0,73,0.00,CLR,OVC,0.00,0.0,WeatherDisplay:10.37,2013-03-15 04:00:00,
2013-03-15 00:05:00,37.6,30.1,30.18,WSW,244,0.0,0.0,74,0.00,CLR,OVC,0.00,0.0,WeatherDisplay:10.37,2013-03-15 04:05:00,
2013-03-15 00:10:00,37.4,29.9,30.19,WSW,244,0.0,0.0,74,0.00,CLR,OVC,0.00,0.0,WeatherDisplay:10.37,2013-03-15 04:10:00,
2013-03-15 00:15:00,37.3,30.1,30.19,WSW,244,0.0,0.0,75,0.00,CLR,OVC,0.00,0.0,WeatherDisplay:10.37,2013-03-15 04:15:00,
2013-03-15 00:20:00,37.2,30.0,30.19,WSW,244,0.0,0.0,75,0.00,CLR,OVC,0.00,0.0,WeatherDisplay:10.37,2013-03-15 04:20:00,
2013-03-15 00:25:00,37.2,29.7,30.19,WSW,244,0.0,0.0,74,0.00,CLR,OVC,0.00,0.0,WeatherDisplay:10.37,2013-03-15 04:25:00,
2013-03-15 00:30:00,37.3,30.1,30.19,WSW,244,0.0,0.0,75,0.00,CLR,OVC,0.00,0.0,WeatherDisplay:10.37,2013-03-15 04:30:00,
2013-03-15 00:35:00,37.4,29.9,30.19,WSW,244,0.0,0.0,74,0.00,CLR,OVC,0.00,0.0,WeatherDisplay:10.37,2013-03-15 04:35:00,
2013-03-15 00:40:00,37.6,29.7,30.19,WSW,244,0.0,0.0,73,0.00,CLR,OVC,0.00,0.0,WeatherDisplay:10.37,2013-03-15 04:40:00,
2013-03-15 00:45:00,37.8,29.9,30.19,WSW,250,0.0,0.0,73,0.00,CLR,OVC,0.00,0.0,WeatherDisplay:10.37,2013-03-15 04:45:00,
2013-03-15 00:50:00,37.7,29.8,30.19,WSW,248,0.0,0.0,73,0.00,CLR,OVC,0.00,0.0,WeatherDisplay:10.37,2013-03-15 04:50:00,
2013-03-15 00:55:00,37.7,30.2,30.19,WSW,248,0.0,0.0,74,0.00,CLR,OVC,0.00,0.0,WeatherDisplay:10.37,2013-03-15 04:55:00,
2013-03-15 01:00:00,37.8,30.3,30.19,WSW,248,0.0,0.0,74,0.00,CLR,OVC,0.00,0.0,WeatherDisplay:10.37,2013-03-15 05:00:00,
2013-03-15 01:05:00,37.7,30.2,30.19,WSW,248,0.0,0.0,74,0.00,CLR,OVC,0.00,0.0,WeatherDisplay:10.37,2013-03-15 05:05:00,
2013-03-15 01:10:00,37.5,30.3,30.19,WSW,248,0.0,0.0,75,0.00,CLR,OVC,0.00,0.0,WeatherDisplay:10.37,2013-03-15 05:10:00,
2013-03-15 01:15:00,37.3,30.1,30.19,WSW,248,0.0,0.0,75,0.00,CLR,OVC,0.00,0.0,WeatherDisplay:10.37,2013-03-15 05:15:00,
2013-03-15 01:20:00,37.0,30.1,30.19,WSW,248,0.0,0.0,76,0.00,CLR,OVC,0.00,0.0,WeatherDisplay:10.37,2013-03-15 05:20:00,
2013-03-15 01:25:00,36.7,29.8,30.19,WSW,248,0.0,0.0,76,0.00,CLR,OVC,0.00,0.0,WeatherDisplay:10.37,2013-03-15 05:25:00,
2013-03-15 01:30:00,36.6,29.7,30.19,WSW,250,0.0,0.0,76,0.00,CLR,OVC,0.00,0.0,WeatherDisplay:10.37,2013-03-15 05:30:00,
2013-03-15 01:35:00,36.6,29.4,30.19,WSW,257,0.0,0.0,75,0.00,CLR,OVC,0.00,0.0,WeatherDisplay:10.37,2013-03-15 05:35:00,
2013-03-15 01:40:00,36.9,29.7,30.19,WSW,257,0.0,0.0,75,0.00,CLR,OVC,0.00,0.0,WeatherDisplay:10.37,2013-03-15 05:40:00,
2013-03-15 01:45:00,37.2,29.7,30.19,WSW,257,0.0,0.0,74,0.00,CLR,OVC,0.00,0.0,WeatherDisplay:10.37,2013-03-15 05:45:00,
2013-03-15 01:50:00,37.4,29.5,30.19,West,273,0.0,0.0,73,0.00,CLR,OVC,0.00,0.0,WeatherDisplay:10.37,2013-03-15 05:50:00,
2013-03-15 01:55:00,37.5,29.6,30.19,West,273,0.0,0.0,73,0.00,CLR,OVC,0.00,0.0,WeatherDisplay:10.37,2013-03-15 05:55:00,
2013-03-15 02:00:00,37.5,29.6,30.19,West,273,0.0,0.0,73,0.00,CLR,OVC,0.00,0.0,WeatherDisplay:10.37,2013-03-15 06:00:00,
2013-03-15 02:05:00,37.4,29.9,30.19,West,269,0.0,0.0,74,0.00,CLR,OVC,0.00,0.0,WeatherDisplay:10.37,2013-03-15 06:05:00,
2013-03-15 02:10:00,37.2,29.7,30.19,West,270,0.0,0.0,74,0.00,CLR,OVC,0.00,0.0,WeatherDisplay:10.37,2013-03-15 06:10:00,
2013-03-15 02:15:00,37.0,29.8,30.19,West,279,0.0,0.0,75,0.00,CLR,OVC,0.00,0.0,WeatherDisplay:10.37,2013-03-15 06:15:00,
2013-03-15 02:20:00,37.0,29.5,30.19,West,279,0.0,0.0,74,0.00,CLR,OVC,0.00,0.0,WeatherDisplay:10.37,2013-03-15 06:20:00,
2013-03-15 02:25:00,36.9,29.4,30.20,West,279,0.0,0.0,74,0.00,CLR,OVC,0.00,0.0,WeatherDisplay:10.37,2013-03-15 06:25:00,
2013-03-15 02:30:00,36.8,29.6,30.20,West,279,0.0,0.0,75,0.00,CLR,OVC,0.00,0.0,WeatherDisplay:10.37,2013-03-15 06:30:00,
2013-03-15 02:35:00,36.6,29.4,30.20,West,279,0.0,0.0,75,0.00,CLR,OVC,0.00,0.0,WeatherDisplay:10.37,2013-03-15 06:35:00,
2013-03-15 02:40:00,36.3,29.5,30.20,West,279,0.1,0.0,76,0.00,CLR,OVC,0.00,0.0,WeatherDisplay:10.37,2013-03-15 06:40:00,
2013-03-15 02:45:00,36.0,29.5,30.20,West,279,0.0,0.0,77,0.00,CLR,OVC,0.00,0.0,WeatherDisplay:10.37,2013-03-15 06:45:00,
2013-03-15 02:50:00,35.7,29.5,30.19,West,279,0.0,0.0,78,0.00,CLR,OVC,0.00,0.0,WeatherDisplay:10.37,2013-03-15 06:50:00,
2013-03-15 02:55:00,35.4,29.5,30.19,West,279,0.0,0.0,79,0.00,CLR,OVC,0.00,0.0,WeatherDisplay:10.37,2013-03-15 06:55:00,
2013-03-15 03:00:00,35.2,29.6,30.19,West,279,0.0,0.0,80,0.00,CLR,OVC,0.00,0.0,WeatherDisplay:10.37,2013-03-15 07:00:00,
2013-03-15 03:05:00,35.0,29.8,30.19,West,279,0.0,0.0,81,0.00,CLR,OVC,0.00,0.0,WeatherDisplay:10.37,2013-03-15 07:05:00,
2013-03-15 03:10:00,34.7,29.5,30.19,West,279,0.0,0.0,81,0.00,CLR,OVC,0.00,0.0,WeatherDisplay:10.37,2013-03-15 07:10:00,
2013-03-15 03:15:00,34.5,29.9,30.19,West,279,0.0,0.0,83,0.00,CLR,OVC,0.00,0.0,WeatherDisplay:10.37,2013-03-15 07:15:00,
2013-03-15 03:20:00,34.3,29.7,30.19,NNW,333,0.0,0.0,83,0.00,CLR,OVC,0.00,0.0,WeatherDisplay:10.37,2013-03-15 07:20:00,
2013-03-15 03:25:00,34.2,29.6,30.19,NNW,333,0.0,0.0,83,0.00,CLR,OVC,0.00,0.0,WeatherDisplay:10.37,2013-03-15 07:25:00,
2013-03-15 03:30:00,34.1,29.5,30.19,NNW,333,0.0,0.0,83,0.00,CLR,OVC,0.00,0.0,WeatherDisplay:10.37,2013-03-15 07:30:00,
2013-03-15 03:35:00,34.0,29.4,30.19,NNW,333,0.0,0.0,83,0.00,CLR,OVC,0.00,0.0,WeatherDisplay:10.37,2013-03-15 07:35:00,
2013-03-15 03:40:00,34.0,29.7,30.19,NNW,333,0.0,0.0,84,0.00,CLR,OVC,0.00,0.0,WeatherDisplay:10.37,2013-03-15 07:40:00,
2013-03-15 03:45:00,34.0,29.7,30.19,NNW,333,0.0,0.0,84,0.00,CLR,OVC,0.00,0.0,WeatherDisplay:10.37,2013-03-15 07:45:00,
2013-03-15 03:50:00,33.9,29.6,30.19,NNW,333,0.0,0.0,84,0.00,CLR,OVC,0.00,0.0,WeatherDisplay:10.37,2013-03-15 07:50:00,
2013-03-15 03:56:00,33.8,29.8,30.18,NNW,333,0.0,0.0,85,0.00,CLR,OVC,0.00,0.0,WeatherDisplay:10.37,2013-03-15 07:56:00,
2013-03-15 04:01:00,33.7,29.7,30.18,NNW,333,0.0,0.0,85,0.00,CLR,OVC,0.00,0.0,WeatherDisplay:10.37,2013-03-15 08:01:00,
2013-03-15 04:06:00,33.7,29.7,30.18,NNW,333,0.0,0.0,85,0.00,CLR,OVC,0.00,0.0,WeatherDisplay:10.37,2013-03-15 08:06:00,
2013-03-15 04:11:00,33.6,29.6,30.18,NNW,333,0.0,0.0,85,0.00,CLR,OVC,0.00,0.0,WeatherDisplay:10.37,2013-03-15 08:11:00,
2013-03-15 04:16:00,33.5,29.5,30.18,NNW,333,0.0,0.0,85,0.00,CLR,OVC,0.00,0.0,WeatherDisplay:10.37,2013-03-15 08:16:00,
2013-03-15 04:21:00,33.4,29.4,30.18,NNW,333,0.0,0.0,85,0.00,CLR,OVC,0.00,0.0,WeatherDisplay:10.37,2013-03-15 08:21:00,
2013-03-15 04:26:00,33.3,29.3,30.18,NNW,333,0.0,0.0,85,0.00,CLR,OVC,0.00,0.0,WeatherDisplay:10.37,2013-03-15 08:26:00,
2013-03-15 04:31:00,33.2,29.2,30.18,NNW,333,0.0,0.0,85,0.00,CLR,OVC,0.00,0.0,WeatherDisplay:10.37,2013-03-15 08:31:00,
2013-03-15 04:36:00,33.1,29.1,30.18,NNW,333,0.0,0.0,85,0.00,CLR,OVC,0.00,0.0,WeatherDisplay:10.37,2013-03-15 08:36:00,
2013-03-15 04:41:00,32.9,28.9,30.18,NNW,333,0.0,0.0,85,0.00,CLR,OVC,0.00,0.0,WeatherDisplay:10.37,2013-03-15 08:41:00,
2013-03-15 04:46:00,32.7,29.0,30.18,NNW,333,0.0,0.0,86,0.00,CLR,OVC,0.00,0.0,WeatherDisplay:10.37,2013-03-15 08:46:00,
2013-03-15 04:51:00,32.5,28.5,30.18,NNW,333,0.0,0.0,85,0.00,CLR,OVC,0.00,0.0,WeatherDisplay:10.37,2013-03-15 08:51:00,
2013-03-15 04:56:00,32.3,28.3,30.18,NNW,333,0.0,0.0,85,0.00,CLR,OVC,0.00,0.0,WeatherDisplay:10.37,2013-03-15 08:56:00,
2013-03-15 05:01:00,32.1,28.1,30.18,NNW,333,0.0,0.0,85,0.00,CLR,OVC,0.00,0.0,WeatherDisplay:10.37,2013-03-15 09:01:00,
2013-03-15 05:06:00,31.9,28.2,30.18,NNW,333,0.0,0.0,86,0.00,CLR,OVC,0.00,0.0,WeatherDisplay:10.37,2013-03-15 09:06:00,
2013-03-15 05:11:00,31.8,28.4,30.18,NNW,333,0.0,0.0,87,0.00,CLR,OVC,0.00,0.0,WeatherDisplay:10.37,2013-03-15 09:11:00,
2013-03-15 05:16:00,31.5,27.8,30.18,NNW,333,0.0,0.0,86,0.00,CLR,OVC,0.00,0.0,WeatherDisplay:10.37,2013-03-15 09:16:00,
2013-03-15 05:21:00,31.3,27.9,30.19,NNW,333,0.0,0.0,87,0.00,CLR,OVC,0.00,0.0,WeatherDisplay:10.37,2013-03-15 09:21:00,
2013-03-15 05:26:00,31.1,27.7,30.19,NNW,333,0.0,0.0,87,0.00,CLR,OVC,0.00,0.0,WeatherDisplay:10.37,2013-03-15 09:26:00,
2013-03-15 05:32:00,30.8,27.4,30.19,NNW,333,0.0,0.0,87,0.00,CLR,OVC,0.00,0.0,WeatherDisplay:10.37,2013-03-15 09:32:00,
2013-03-15 05:37:00,30.7,27.6,30.19,NNW,333,0.0,0.0,88,0.00,CLR,OVC,0.00,0.0,WeatherDisplay:10.37,2013-03-15 09:37:00,
2013-03-15 05:42:00,30.6,27.2,30.19,NNW,333,0.0,0.0,87,0.00,CLR,OVC,0.00,0.0,WeatherDisplay:10.37,2013-03-15 09:42:00,
2013-03-15 05:47:00,30.4,27.3,30.19,NNW,333,0.0,0.0,88,0.00,CLR,OVC,0.00,0.0,WeatherDisplay:10.37,2013-03-15 09:47:00,
2013-03-15 05:52:00,30.3,27.2,30.19,NNW,333,0.0,0.0,88,0.00,CLR,OVC,0.00,0.0,WeatherDisplay:10.37,2013-03-15 09:52:00,
2013-03-15 05:57:00,30.2,27.3,30.19,NNW,333,0.0,0.0,89,0.00,CLR,OVC,0.00,0.0,WeatherDisplay:10.37,2013-03-15 09:57:00,
2013-03-15 06:02:00,30.2,27.3,30.20,NNW,333,0.0,0.0,89,0.00,CLR,OVC,0.00,0.0,WeatherDisplay:10.37,2013-03-15 10:02:00,
2013-03-15 06:07:00,30.0,27.2,30.20,NNW,333,0.0,0.0,89,0.00,CLR,OVC,0.00,0.0,WeatherDisplay:10.37,2013-03-15 10:07:00,
2013-03-15 06:12:00,29.8,27.0,30.20,NNW,333,0.0,0.0,89,0.00,CLR,OVC,0.00,0.0,WeatherDisplay:10.37,2013-03-15 10:12:00,
2013-03-15 06:17:00,29.7,26.9,30.20,NNW,333,0.0,0.0,89,0.00,CLR,OVC,0.00,0.0,WeatherDisplay:10.37,2013-03-15 10:17:00,
2013-03-15 06:22:00,29.7,27.1,30.20,NNW,333,0.0,0.0,90,0.00,CLR,OVC,0.00,0.0,WeatherDisplay:10.37,2013-03-15 10:22:00,
2013-03-15 06:27:00,29.6,27.0,30.20,NNW,333,0.0,0.0,90,0.00,CLR,OVC,0.00,0.0,WeatherDisplay:10.37,2013-03-15 10:27:00,
2013-03-15 06:32:00,29.6,27.0,30.20,NNW,333,0.0,0.0,90,0.00,CLR,OVC,0.00,0.0,WeatherDisplay:10.37,2013-03-15 10:32:00,
2013-03-15 06:37:00,29.6,27.0,30.20,NNW,333,0.0,0.0,90,0.00,CLR,OVC,0.00,0.0,WeatherDisplay:10.37,2013-03-15 10:37:00,
2013-03-15 06:42:00,29.5,26.9,30.20,NNW,333,0.0,0.0,90,0.00,CLR,OVC,0.00,0.0,WeatherDisplay:10.37,2013-03-15 10:42:00,
2013-03-15 06:47:00,29.4,26.8,30.20,NNW,333,0.0,0.0,90,0.00,CLR,OVC,0.00,0.0,WeatherDisplay:10.37,2013-03-15 10:47:00,
2013-03-15 06:52:00,29.3,26.7,30.20,NNW,333,0.0,0.0,90,0.00,CLR,OVC,0.00,0.0,WeatherDisplay:10.37,2013-03-15 10:52:00,
2013-03-15 06:57:00,29.2,26.6,30.21,NNW,333,0.0,0.0,90,0.00,CLR,OVC,0.00,0.0,WeatherDisplay:10.37,2013-03-15 10:57:00,
2013-03-15 07:02:00,29.1,26.5,30.21,NNW,333,0.0,0.0,90,0.00,CLR,OVC,0.00,0.0,WeatherDisplay:10.37,2013-03-15 11:02:00,
2013-03-15 07:07:00,29.0,26.4,30.21,NNW,333,0.0,0.0,90,0.00,OVC,,0.00,0.0,WeatherDisplay:10.37,2013-03-15 11:07:00,
2013-03-15 07:12:00,28.8,26.2,30.21,NNW,333,0.0,0.0,90,0.00,OVC,,0.00,0.0,WeatherDisplay:10.37,2013-03-15 11:12:00,
2013-03-15 07:17:00,28.7,26.1,30.21,NNW,333,0.0,0.0,90,0.00,OVC,,0.00,0.0,WeatherDisplay:10.37,2013-03-15 11:17:00,
2013-03-15 07:22:00,28.7,26.4,30.21,NNW,333,0.0,0.0,91,0.00,OVC,,0.00,0.0,WeatherDisplay:10.37,2013-03-15 11:22:00,
2013-03-15 07:27:00,28.7,26.4,30.21,NNW,333,0.0,0.0,91,0.00,OVC,,0.00,0.0,WeatherDisplay:10.37,2013-03-15 11:27:00,
2013-03-15 07:32:00,28.7,26.4,30.21,NNW,333,0.0,0.0,91,0.00,OVC,,0.00,0.0,WeatherDisplay:10.37,2013-03-15 11:32:00,
2013-03-15 07:37:00,28.7,26.4,30.21,NNW,333,0.0,0.0,91,0.00,OVC,,0.00,0.0,WeatherDisplay:10.37,2013-03-15 11:37:00,
2013-03-15 07:42:00,28.7,26.4,30.21,NNW,333,0.0,0.0,91,0.00,OVC,,0.00,0.0,WeatherDisplay:10.37,2013-03-15 11:42:00,
2013-03-15 07:47:00,28.7,26.4,30.22,NNW,333,0.0,0.0,91,0.00,OVC,,0.00,0.0,WeatherDisplay:10.37,2013-03-15 11:47:00,
2013-03-15 07:52:00,29.0,27.0,30.22,NNW,333,0.0,0.0,92,0.00,OVC,,0.00,0.0,WeatherDisplay:10.37,2013-03-15 11:52:00,
2013-03-15 07:57:00,29.7,27.9,30.22,NNW,333,0.0,0.0,93,0.00,OVC,,0.00,0.0,WeatherDisplay:10.37,2013-03-15 11:57:00,
2013-03-15 08:02:00,30.6,28.8,30.22,NNW,333,0.0,0.0,93,0.00,OVC,,0.00,0.0,WeatherDisplay:10.37,2013-03-15 12:02:00,
2013-03-15 08:08:00,31.8,30.0,30.22,NNW,333,0.0,0.0,93,0.00,OVC,,0.00,0.0,WeatherDisplay:10.37,2013-03-15 12:08:00,
2013-03-15 08:13:00,33.2,31.1,30.22,NNW,333,0.0,0.0,92,0.00,OVC,,0.00,0.0,WeatherDisplay:10.37,2013-03-15 12:13:00,
2013-03-15 08:18:00,34.7,32.3,30.21,NNW,333,0.0,0.0,91,0.00,OVC,,0.00,0.0,WeatherDisplay:10.37,2013-03-15 12:18:00,
2013-03-15 08:23:00,36.2,32.4,30.21,NNW,333,0.0,0.0,86,0.00,OVC,,0.00,0.0,WeatherDisplay:10.37,2013-03-15 12:23:00,
2013-03-15 08:28:00,37.5,33.4,30.22,NNW,333,0.0,0.0,85,0.00,OVC,,0.00,0.0,WeatherDisplay:10.37,2013-03-15 12:28:00,
2013-03-15 08:33:00,38.9,34.2,30.22,NNW,333,0.0,0.0,83,0.00,OVC,,0.00,0.0,WeatherDisplay:10.37,2013-03-15 12:33:00,
2013-03-15 08:38:00,40.2,33.9,30.22,NNW,333,0.0,0.0,78,0.00,OVC,,0.00,0.0,WeatherDisplay:10.37,2013-03-15 12:38:00,
2013-03-15 08:43:00,41.3,33.6,30.22,NNW,333,0.0,0.0,74,0.00,OVC,,0.00,0.0,WeatherDisplay:10.37,2013-03-15 12:43:00,
2013-03-15 08:48:00,42.2,33.5,30.21,NNW,333,0.0,0.0,71,0.00,OVC,,0.00,0.0,WeatherDisplay:10.37,2013-03-15 12:48:00,
2013-03-15 08:53:00,43.2,33.3,30.21,NNW,333,0.0,0.0,68,0.00,OVC,,0.00,0.0,WeatherDisplay:10.37,2013-03-15 12:53:00,
2013-03-15 08:58:00,44.5,33.8,30.21,NNW,329,0.0,0.0,66,0.00,OVC,,0.00,0.0,WeatherDisplay:10.37,2013-03-15 12:58:00,
2013-03-15 09:03:00,45.6,32.1,30.21,NNW,330,0.0,0.0,59,0.00,OVC,,0.00,0.0,WeatherDisplay:10.37,2013-03-15 13:03:00,
2013-03-15 09:08:00,46.4,31.1,30.21,NNW,331,0.0,0.0,55,0.00,OVC,,0.00,0.0,WeatherDisplay:10.37,2013-03-15 13:08:00,
2013-03-15 09:13:00,47.3,33.3,30.21,NNW,331,0.0,0.0,58,0.00,OVC,,0.00,0.0,WeatherDisplay:10.37,2013-03-15 13:13:00,
2013-03-15 09:18:00,48.2,30.9,30.21,North,360,0.0,0.0,51,0.00,OVC,,0.00,0.0,WeatherDisplay:10.37,2013-03-15 13:18:00,
2013-03-15 09:23:00,48.9,29.5,30.22,NNW,338,0.4,2.3,47,0.00,OVC,,0.00,0.0,WeatherDisplay:10.37,2013-03-15 13:23:00,
2013-03-15 09:28:00,49.3,30.9,30.21,NW,315,0.0,0.0,49,0.00,OVC,,0.00,0.0,WeatherDisplay:10.37,2013-03-15 13:28:00,
2013-03-15 09:33:00,49.5,26.1,30.22,NNW,348,0.5,2.3,40,0.00,OVC,,0.00,0.0,WeatherDisplay:10.37,2013-03-15 13:33:00,
2013-03-15 09:38:00,49.7,28.1,30.22,NNW,329,0.1,3.5,43,0.00,OVC,,0.00,0.0,WeatherDisplay:10.37,2013-03-15 13:38:00,
2013-03-15 09:43:00,50.4,28.1,30.22,NW,306,1.7,3.5,42,0.00,OVC,,0.00,0.0,WeatherDisplay:10.37,2013-03-15 13:43:00,
2013-03-15 09:48:00,50.6,27.7,30.21,NW,323,0.0,0.0,41,0.00,OVC,,0.00,0.0,WeatherDisplay:10.37,2013-03-15 13:48:00,
2013-03-15 09:53:00,50.9,28.6,30.21,NNW,348,0.0,0.0,42,0.00,OVC,,0.00,0.0,WeatherDisplay:10.37,2013-03-15 13:53:00,
2013-03-15 09:58:00,51.4,27.2,30.22,North,5,2.5,3.5,39,0.00,OVC,,0.00,0.0,WeatherDisplay:10.37,2013-03-15 13:58:00,
2013-03-15 10:03:00,51.4,26.6,30.22,WNW,286,0.2,0.0,38,0.00,OVC,,0.00,0.0,WeatherDisplay:10.37,2013-03-15 14:03:00,
2013-03-15 10:08:00,51.7,25.6,30.22,SSW,207,0.2,3.5,36,0.00,OVC,,0.00,0.0,WeatherDisplay:10.37,2013-03-15 14:08:00,
2013-03-15 10:13:00,52.3,25.4,30.22,West,281,0.7,3.5,35,0.00,OVC,,0.00,0.0,WeatherDisplay:10.37,2013-03-15 14:13:00,
2013-03-15 10:18:00,52.6,26.4,30.22,NNW,331,0.4,2.3,36,0.00,OVC,,0.00,0.0,WeatherDisplay:10.37,2013-03-15 14:18:00,
2013-03-15 10:23:00,53.2,24.8,30.21,West,266,1.6,2.3,33,0.00,OVC,,0.00,0.0,WeatherDisplay:10.37,2013-03-15 14:23:00,
2013-03-15 10:28:00,53.5,23.6,30.21,North,355,1.0,3.5,31,0.00,OVC,,0.00,0.0,WeatherDisplay:10.37,2013-03-15 14:28:00,
2013-03-15 10:33:00,53.9,24.7,30.21,North,360,1.0,1.1,32,0.00,OVC,,0.00,0.0,WeatherDisplay:10.37,2013-03-15 14:33:00,
2013-03-15 10:38:00,54.1,24.1,30.21,NW,314,0.6,1.1,31,0.00,OVC,,0.00,0.0,WeatherDisplay:10.37,2013-03-15 14:38:00,
2013-03-15 10:43:00,54.4,24.4,30.20,NNE,12,0.0,1.1,31,0.00,OVC,,0.00,0.0,WeatherDisplay:10.37,2013-03-15 14:43:00,
2013-03-15 10:48:00,54.6,22.9,30.21,NW,321,3.7,5.8,29,0.00,OVC,,0.00,0.0,WeatherDisplay:10.37,2013-03-15 14:48:00,
2013-03-15 10:53:00,55.1,22.5,30.21,SE,135,0.0,3.5,28,0.00,OVC,,0.00,0.0,WeatherDisplay:10.37,2013-03-15 14:53:00,
2013-03-15 10:58:00,55.1,23.4,30.20,NNE,17,0.2,2.3,29,0.00,OVC,,0.00,0.0,WeatherDisplay:10.37,2013-03-15 14:58:00,
2013-03-15 11:03:00,55.0,23.3,30.20,WSW,254,0.5,1.1,29,0.00,OVC,,0.00,0.0,WeatherDisplay:10.37,2013-03-15 15:03:00,
2013-03-15 11:08:00,55.4,22.8,30.21,NW,307,1.9,4.6,28,0.00,OVC,,0.00,0.0,WeatherDisplay:10.37,2013-03-15 15:08:00,
2013-03-15 11:13:00,55.9,23.2,30.20,WSW,254,0.2,3.5,28,0.00,OVC,,0.00,0.0,WeatherDisplay:10.37,2013-03-15 15:13:00,
2013-03-15 11:18:00,56.6,23.0,30.20,West,276,1.5,3.5,27,0.00,OVC,,0.00,0.0,WeatherDisplay:10.37,2013-03-15 15:18:00,
2013-03-15 11:23:00,56.7,21.2,30.20,SW,226,3.2,4.6,25,0.00,OVC,,0.00,0.0,WeatherDisplay:10.37,2013-03-15 15:23:00,
2013-03-15 11:28:00,56.3,22.7,30.20,NNW,338,2.5,5.8,27,0.00,OVC,,0.00,0.0,WeatherDisplay:10.37,2013-03-15 15:28:00,
2013-03-15 11:34:00,56.4,23.7,30.20,WSW,238,0.3,3.5,28,0.00,OVC,,0.00,0.0,WeatherDisplay:10.37,2013-03-15 15:34:00,
2013-03-15 11:39:00,56.6,22.1,30.19,West,273,0.0,0.0,26,0.00,OVC,,0.00,0.0,WeatherDisplay:10.37,2013-03-15 15:39:00,
2013-03-15 11:44:00,56.7,22.2,30.19,SSW,207,0.8,3.5,26,0.00,OVC,,0.00,0.0,WeatherDisplay:10.37,2013-03-15 15:44:00,
2013-03-15 11:49:00,56.7,21.2,30.19,WSW,240,1.4,3.5,25,0.00,OVC,,0.00,0.0,WeatherDisplay:10.37,2013-03-15 15:49:00,
2013-03-15 11:54:00,56.6,21.1,30.18,West,273,1.7,5.8,25,0.00,OVC,,0.00,0.0,WeatherDisplay:10.37,2013-03-15 15:54:00,
2013-03-15 11:59:00,56.8,21.3,30.18,NNW,339,1.1,4.6,25,0.00,OVC,,0.00,0.0,WeatherDisplay:10.37,2013-03-15 15:59:00,
2013-03-15 12:04:00,57.0,21.5,30.18,South,186,1.6,3.5,25,0.00,OVC,,0.00,0.0,WeatherDisplay:10.37,2013-03-15 16:04:00,
2013-03-15 12:09:00,57.2,23.5,30.18,WNW,284,3.1,4.6,27,0.00,OVC,,0.00,0.0,WeatherDisplay:10.37,2013-03-15 16:09:00,
2013-03-15 12:14:00,57.1,21.6,30.18,WSW,253,1.2,5.8,25,0.00,OVC,,0.00,0.0,WeatherDisplay:10.37,2013-03-15 16:14:00,
2013-03-15 12:19:00,57.6,22.9,30.17,NNW,336,1.4,2.3,26,0.00,OVC,,0.00,0.0,WeatherDisplay:10.37,2013-03-15 16:19:00,
2013-03-15 12:24:00,58.0,22.3,30.17,North,10,1.8,4.6,25,0.00,OVC,,0.00,0.0,WeatherDisplay:10.37,2013-03-15 16:24:00,
2013-03-15 12:29:00,57.8,21.2,30.17,SSW,208,4.4,8.1,24,0.00,OVC,,0.00,0.0,WeatherDisplay:10.37,2013-03-15 16:29:00,
2013-03-15 12:34:00,57.4,22.8,30.17,SW,228,3.7,10.0,26,0.00,OVC,,0.00,0.0,WeatherDisplay:10.37,2013-03-15 16:34:00,
2013-03-15 12:39:00,57.4,21.8,30.17,SW,235,5.2,8.1,25,0.00,OVC,,0.00,0.0,WeatherDisplay:10.37,2013-03-15 16:39:00,
2013-03-15 12:44:00,57.2,22.6,30.17,WNW,282,0.3,6.9,26,0.00,OVC,,0.00,0.0,WeatherDisplay:10.37,2013-03-15 16:44:00,
2013-03-15 12:49:00,57.9,23.2,30.16,WNW,290,0.0,0.0,26,0.00,OVC,,0.00,0.0,WeatherDisplay:10.37,2013-03-15 16:49:00,
2013-03-15 12:54:00,58.7,23.9,30.16,WSW,256,2.1,5.8,26,0.00,OVC,,0.00,0.0,WeatherDisplay:10.37,2013-03-15 16:54:00,
2013-03-15 12:59:00,59.2,22.4,30.15,WSW,244,2.1,4.6,24,0.00,OVC,,0.00,0.0,WeatherDisplay:10.37,2013-03-15 16:59:00,
2013-03-15 13:04:00,59.1,23.3,30.15,SSW,201,3.7,9.2,25,0.00,OVC,,0.00,0.0,WeatherDisplay:10.37,2013-03-15 17:04:00,
2013-03-15 13:09:00,59.2,23.4,30.15,SW,236,0.6,3.0,25,0.00,OVC,,0.00,0.0,WeatherDisplay:10.37,2013-03-15 17:09:00,
2013-03-15 13:14:00,59.3,22.5,30.14,SW,228,2.8,8.1,24,0.00,OVC,,0.00,0.0,WeatherDisplay:10.37,2013-03-15 17:14:00,
2013-03-15 13:19:00,59.0,22.2,30.14,SSW,202,3.3,8.1,24,0.00,OVC,,0.00,0.0,WeatherDisplay:10.37,2013-03-15 17:19:00,
2013-03-15 13:24:00,59.1,23.3,30.14,South,180,1.0,4.6,25,0.00,OVC,,0.00,0.0,WeatherDisplay:10.37,2013-03-15 17:24:00,
2013-03-15 13:29:00,59.8,24.8,30.13,West,272,3.2,4.6,26,0.00,OVC,,0.00,0.0,WeatherDisplay:10.37,2013-03-15 17:29:00,
2013-03-15 13:34:00,60.4,24.4,30.13,NNW,345,7.5,9.2,25,0.00,OVC,,0.00,0.0,WeatherDisplay:10.37,2013-03-15 17:34:00,
2013-03-15 13:39:00,60.0,23.1,30.12,SW,234,3.3,8.1,24,0.00,OVC,,0.00,0.0,WeatherDisplay:10.37,2013-03-15 17:39:00,
2013-03-15 13:44:00,60.1,24.1,30.12,WSW,257,7.3,13.8,25,0.00,OVC,,0.00,0.0,WeatherDisplay:10.37,2013-03-15 17:44:00,
2013-03-15 13:49:00,60.3,25.2,30.11,North,360,3.7,8.0,26,0.00,OVC,,0.00,0.0,WeatherDisplay:10.37,2013-03-15 17:49:00,
2013-03-15 13:54:00,60.4,31.1,30.11,South,180,2.5,4.6,33,0.00,OVC,,0.00,0.0,WeatherDisplay:10.37,2013-03-15 17:54:00,
2013-03-15 13:59:00,59.7,30.5,30.11,SE,126,1.4,4.6,33,0.00,OVC,,0.00,0.0,WeatherDisplay:10.37,2013-03-15 17:59:00,
2013-03-15 14:04:00,59.3,32.3,30.11,SE,144,5.0,8.1,36,0.00,OVC,,0.00,0.0,WeatherDisplay:10.37,2013-03-15 18:04:00,
2013-03-15 14:09:00,58.8,31.9,30.10,ESE,122,6.4,8.1,36,0.00,OVC,,0.00,0.0,WeatherDisplay:10.37,2013-03-15 18:09:00,
2013-03-15 14:14:00,58.4,31.5,30.10,SSE,147,3.1,11.5,36,0.00,OVC,,0.00,0.0,WeatherDisplay:10.37,2013-03-15 18:14:00,
2013-03-15 14:19:00,57.8,31.7,30.10,East,85,4.7,8.1,37,0.00,OVC,,0.00,0.0,WeatherDisplay:10.37,2013-03-15 18:19:00,
2013-03-15 14:24:00,57.3,31.9,30.09,ESE,113,3.4,10.4,38,0.00,OVC,,0.00,0.0,WeatherDisplay:10.37,2013-03-15 18:24:00,
2013-03-15 14:29:00,57.3,32.5,30.09,SSE,159,3.7,10.4,39,0.00,OVC,,0.00,0.0,WeatherDisplay:10.37,2013-03-15 18:29:00,
2013-03-15 14:34:00,57.5,33.3,30.09,East,98,0.9,9.0,40,0.00,OVC,,0.00,0.0,WeatherDisplay:10.37,2013-03-15 18:34:00,
2013-03-15 14:39:00,57.4,33.9,30.09,SE,127,3.8,9.2,41,0.00,OVC,,0.00,0.0,WeatherDisplay:10.37,2013-03-15 18:39:00,
2013-03-15 14:44:00,57.3,33.2,30.08,SSE,154,3.0,7.0,40,0.00,OVC,,0.00,0.0,WeatherDisplay:10.37,2013-03-15 18:44:00,
2013-03-15 14:49:00,57.5,33.3,30.08,SE,130,3.0,5.8,40,0.00,OVC,,0.00,0.0,WeatherDisplay:10.37,2013-03-15 18:49:00,
2013-03-15 14:54:00,58.0,32.5,30.08,South,169,5.9,9.2,38,0.00,OVC,,0.00,0.0,WeatherDisplay:10.37,2013-03-15 18:54:00,
2013-03-15 14:59:00,58.2,32.0,30.08,SSW,194,4.2,11.5,37,0.00,OVC,,0.00,0.0,WeatherDisplay:10.37,2013-03-15 18:59:00,
2013-03-15 15:04:00,58.3,32.8,30.08,SSE,158,5.9,11.5,38,0.00,OVC,,0.00,0.0,WeatherDisplay:10.37,2013-03-15 19:04:00,
2013-03-15 15:09:00,58.6,34.3,30.08,South,186,3.5,4.6,40,0.00,OVC,,0.00,0.0,WeatherDisplay:10.37,2013-03-15 19:09:00,
2013-03-15 15:14:00,59.0,34.1,30.07,SSW,194,5.5,8.1,39,0.00,OVC,,0.00,0.0,WeatherDisplay:10.37,2013-03-15 19:14:00,
2013-03-15 15:20:00,58.9,34.6,30.08,South,178,3.7,9.2,40,0.00,OVC,,0.00,0.0,WeatherDisplay:10.37,2013-03-15 19:20:00,
2013-03-15 15:25:00,59.1,34.8,30.07,South,177,1.7,4.6,40,0.00,OVC,,0.00,0.0,WeatherDisplay:10.37,2013-03-15 19:25:00,
2013-03-15 15:30:00,59.6,31.9,30.06,South,184,4.1,11.5,35,0.00,OVC,,0.00,0.0,WeatherDisplay:10.37,2013-03-15 19:30:00,
2013-03-15 15:35:00,59.7,32.7,30.06,ESE,110,4.3,8.1,36,0.00,OVC,,0.00,0.0,WeatherDisplay:10.37,2013-03-15 19:35:00,
2013-03-15 15:40:00,59.5,33.9,30.05,SE,138,1.1,3.5,38,0.00,OVC,,0.00,0.0,WeatherDisplay:10.37,2013-03-15 19:40:00,
2013-03-15 15:45:00,59.8,32.8,30.05,SW,232,2.5,6.9,36,0.00,OVC,,0.00,0.0,WeatherDisplay:10.37,2013-03-15 19:45:00,
2013-03-15 15:50:00,60.4,33.3,30.05,ENE,69,0.1,1.1,36,0.00,OVC,,0.00,0.0,WeatherDisplay:10.37,2013-03-15 19:50:00,
2013-03-15 15:55:00,61.2,31.1,30.05,SE,138,0.0,0.0,32,0.00,OVC,,0.00,0.0,WeatherDisplay:10.37,2013-03-15 19:55:00,
2013-03-15 16:00:00,62.0,31.8,30.05,SW,222,5.1,6.9,32,0.00,OVC,,0.00,0.0,WeatherDisplay:10.37,2013-03-15 20:00:00,
2013-03-15 16:05:00,62.3,31.3,30.05,WSW,243,7.8,14.0,31,0.00,OVC,,0.00,0.0,WeatherDisplay:10.37,2013-03-15 20:05:00,
2013-03-15 16:10:00,61.9,30.9,30.05,SW,226,6.0,10.4,31,0.00,OVC,,0.00,0.0,WeatherDisplay:10.37,2013-03-15 20:10:00,
2013-03-15 16:15:00,61.5,29.7,30.05,SW,220,6.1,11.5,30,0.00,OVC,,0.00,0.0,WeatherDisplay:10.37,2013-03-15 20:15:00,
2013-03-15 16:20:00,61.4,30.5,30.05,WSW,254,3.6,13.0,31,0.00,OVC,,0.00,0.0,WeatherDisplay:10.37,2013-03-15 20:20:00,
2013-03-15 16:25:00,61.8,30.8,30.04,SW,229,4.8,10.4,31,0.00,OVC,,0.00,0.0,WeatherDisplay:10.37,2013-03-15 20:25:00,
2013-03-15 16:30:00,62.0,30.2,30.04,SSW,198,7.3,12.7,30,0.00,OVC,,0.00,0.0,WeatherDisplay:10.37,2013-03-15 20:30:00,
2013-03-15 16:35:00,61.8,30.0,30.04,SW,225,7.0,11.5,30,0.00,OVC,,0.00,0.0,WeatherDisplay:10.37,2013-03-15 20:35:00,
2013-03-15 16:40:00,61.1,30.2,30.04,West,260,6.9,11.5,31,0.00,OVC,,0.00,0.0,WeatherDisplay:10.37,2013-03-15 20:40:00,
2013-03-15 16:45:00,60.9,30.8,30.03,SSW,198,4.8,9.2,32,0.00,OVC,,0.00,0.0,WeatherDisplay:10.37,2013-03-15 20:45:00,
2013-03-15 16:50:00,61.0,30.9,30.03,SSE,164,9.9,15.0,32,0.00,OVC,,0.00,0.0,WeatherDisplay:10.37,2013-03-15 20:50:00,
2013-03-15 16:55:00,60.6,31.3,30.04,SW,221,6.1,8.1,33,0.00,OVC,,0.00,0.0,WeatherDisplay:10.37,2013-03-15 20:55:00,
2013-03-15 17:00:00,61.0,31.7,30.04,SW,228,5.2,6.9,33,0.00,OVC,,0.00,0.0,WeatherDisplay:10.37,2013-03-15 21:00:00,
2013-03-15 17:05:00,61.3,31.9,30.04,SSW,209,4.3,11.5,33,0.00,OVC,,0.00,0.0,WeatherDisplay:10.37,2013-03-15 21:05:00,
2013-03-15 17:10:00,60.9,31.6,30.04,SW,224,4.9,16.1,33,0.00,OVC,,0.00,0.0,WeatherDisplay:10.37,2013-03-15 21:10:00,
2013-03-15 17:15:00,60.8,31.5,30.04,South,174,7.1,13.8,33,0.00,OVC,,0.00,0.0,WeatherDisplay:10.37,2013-03-15 21:15:00,
2013-03-15 17:20:00,60.5,32.0,30.04,South,178,6.2,12.7,34,0.00,OVC,,0.00,0.0,WeatherDisplay:10.37,2013-03-15 21:20:00,
2013-03-15 17:25:00,60.2,32.4,30.03,SSW,196,3.6,8.1,35,0.00,OVC,,0.00,0.0,WeatherDisplay:10.37,2013-03-15 21:25:00,
2013-03-15 17:30:00,60.2,32.4,30.03,South,173,8.0,12.0,35,0.00,OVC,,0.00,0.0,WeatherDisplay:10.37,2013-03-15 21:30:00,
2013-03-15 17:35:00,60.0,32.2,30.03,South,186,6.9,10.4,35,0.00,OVC,,0.00,0.0,WeatherDisplay:10.37,2013-03-15 21:35:00,
2013-03-15 17:40:00,59.9,32.2,30.03,SSW,193,6.8,9.2,35,0.00,OVC,,0.00,0.0,WeatherDisplay:10.37,2013-03-15 21:40:00,
2013-03-15 17:45:00,59.9,32.9,30.03,SSE,165,4.0,11.5,36,0.00,OVC,,0.00,0.0,WeatherDisplay:10.37,2013-03-15 21:45:00,
2013-03-15 17:50:00,59.7,32.7,30.03,South,175,5.7,10.4,36,0.00,OVC,,0.00,0.0,WeatherDisplay:10.37,2013-03-15 21:50:00,
2013-03-15 17:55:00,59.4,33.1,30.03,South,181,2.6,9.2,37,0.00,OVC,,0.00,0.0,WeatherDisplay:10.37,2013-03-15 21:55:00,
2013-03-15 18:00:00,59.3,33.0,30.03,South,169,3.1,8.1,37,0.00,OVC,,0.00,0.0,WeatherDisplay:10.37,2013-03-15 22:00:00,
2013-03-15 18:05:00,59.0,32.7,30.03,South,188,5.5,9.0,37,0.00,OVC,,0.00,0.0,WeatherDisplay:10.37,2013-03-15 22:05:00,
2013-03-15 18:10:00,58.4,32.9,30.03,SW,236,8.2,10.4,38,0.00,OVC,,0.00,0.0,WeatherDisplay:10.37,2013-03-15 22:10:00,
2013-03-15 18:15:00,57.9,33.1,30.03,South,186,5.5,10.4,39,0.00,OVC,,0.00,0.0,WeatherDisplay:10.37,2013-03-15 22:15:00,
2013-03-15 18:20:00,57.7,32.9,30.02,SW,229,4.8,10.4,39,0.00,OVC,,0.00,0.0,WeatherDisplay:10.37,2013-03-15 22:20:00,
2013-03-15 18:25:00,57.5,33.3,30.03,SSE,167,5.8,10.4,40,0.00,OVC,,0.00,0.0,WeatherDisplay:10.37,2013-03-15 22:25:00,
2013-03-15 18:30:00,57.3,33.2,30.03,SSW,208,4.1,8.1,40,0.00,OVC,,0.00,0.0,WeatherDisplay:10.37,2013-03-15 22:30:00,
2013-03-15 18:35:00,57.0,32.9,30.02,SSW,207,3.7,6.9,40,0.00,OVC,,0.00,0.0,WeatherDisplay:10.37,2013-03-15 22:35:00,
2013-03-15 18:40:00,56.8,33.3,30.02,SW,221,4.0,11.5,41,0.00,OVC,,0.00,0.0,WeatherDisplay:10.37,2013-03-15 22:40:00,
2013-03-15 18:45:00,56.4,33.0,30.03,South,172,3.9,10.4,41,0.00,OVC,,0.00,0.0,WeatherDisplay:10.37,2013-03-15 22:45:00,
2013-03-15 18:50:00,56.2,33.4,30.02,SW,225,6.5,9.2,42,0.00,OVC,,0.00,0.0,WeatherDisplay:10.37,2013-03-15 22:50:00,
2013-03-15 18:55:00,55.9,33.1,30.02,South,189,4.3,10.4,42,0.00,OVC,,0.00,0.0,WeatherDisplay:10.37,2013-03-15 22:55:00,
2013-03-15 19:00:00,55.7,33.5,30.02,SSW,197,4.2,9.2,43,0.00,OVC,,0.00,0.0,WeatherDisplay:10.37,2013-03-15 23:00:00,
2013-03-15 19:05:00,55.4,33.8,30.02,SW,230,2.6,9.2,44,0.00,OVC,,0.00,0.0,WeatherDisplay:10.37,2013-03-15 23:05:00,
2013-03-15 19:10:00,55.2,33.6,30.02,SW,227,3.7,6.9,44,0.00,OVC,,0.00,0.0,WeatherDisplay:10.37,2013-03-15 23:10:00,
2013-03-15 19:15:00,55.0,34.0,30.02,South,186,2.0,5.8,45,0.00,OVC,,0.00,0.0,WeatherDisplay:10.37,2013-03-15 23:15:00,
2013-03-15 19:20:00,54.7,33.8,30.02,SSW,200,3.8,6.0,45,0.00,OVC,,0.00,0.0,WeatherDisplay:10.37,2013-03-15 23:20:00,
2013-03-15 19:25:00,54.5,34.1,30.02,SSW,194,2.0,8.1,46,0.00,OVC,,0.00,0.0,WeatherDisplay:10.37,2013-03-15 23:25:00,
2013-03-15 19:30:00,54.2,34.4,30.02,SW,225,2.5,6.9,47,0.00,OVC,,0.00,0.0,WeatherDisplay:10.37,2013-03-15 23:30:00,
2013-03-15 19:35:00,54.0,34.2,30.03,South,187,1.5,5.0,47,0.00,OVC,,0.00,0.0,WeatherDisplay:10.37,2013-03-15 23:35:00,
2013-03-15 19:40:00,53.8,34.6,30.03,SSE,155,2.6,6.0,48,0.00,OVC,,0.00,0.0,WeatherDisplay:10.37,2013-03-15 23:40:00,
2013-03-15 19:45:00,53.5,34.8,30.02,SW,234,3.8,5.8,49,0.00,OVC,,0.00,0.0,WeatherDisplay:10.37,2013-03-15 23:45:00,
2013-03-15 19:50:00,53.3,34.6,30.02,SSE,154,2.5,6.9,49,0.00,OVC,,0.00,0.0,WeatherDisplay:10.37,2013-03-15 23:50:00,
2013-03-15 19:55:00,53.1,34.9,30.03,SSW,209,2.5,4.6,50,0.00,CLR,OVC,0.00,0.0,WeatherDisplay:10.37,2013-03-15 23:55:00,
2013-03-15 20:00:00,52.9,34.8,30.03,South,180,2.5,7.0,50,0.00,CLR,OVC,0.00,0.0,WeatherDisplay:10.37,2013-03-16 00:00:00,
2013-03-15 20:05:00,52.8,35.2,30.03,South,182,0.5,3.5,51,0.00,CLR,OVC,0.00,0.0,WeatherDisplay:10.37,2013-03-16 00:05:00,
2013-03-15 20:10:00,52.6,35.5,30.03,SSW,208,1.0,7.0,52,0.00,CLR,OVC,0.00,0.0,WeatherDisplay:10.37,2013-03-16 00:10:00,
2013-03-15 20:15:00,52.4,35.3,30.03,SSW,192,1.3,3.5,52,0.00,CLR,OVC,0.00,0.0,WeatherDisplay:10.37,2013-03-16 00:15:00,
2013-03-15 20:20:00,52.3,35.7,30.03,SSE,161,3.4,8.1,53,0.00,CLR,OVC,0.00,0.0,WeatherDisplay:10.37,2013-03-16 00:20:00,
2013-03-15 20:25:00,52.1,35.9,30.03,South,181,1.8,3.5,54,0.00,CLR,OVC,0.00,0.0,WeatherDisplay:10.37,2013-03-16 00:25:00,
2013-03-15 20:30:00,52.0,36.3,30.03,SSE,167,4.2,8.1,55,0.00,CLR,OVC,0.00,0.0,WeatherDisplay:10.37,2013-03-16 00:30:00,
2013-03-15 20:35:00,51.9,36.7,30.03,SSW,207,3.4,8.1,56,0.00,CLR,OVC,0.00,0.0,WeatherDisplay:10.37,2013-03-16 00:35:00,
2013-03-15 20:41:00,51.9,37.6,30.03,South,181,1.5,6.0,58,0.00,CLR,OVC,0.00,0.0,WeatherDisplay:10.37,2013-03-16 00:41:00,
2013-03-15 20:46:00,51.9,38.0,30.03,South,187,2.3,5.8,59,0.00,CLR,OVC,0.00,0.0,WeatherDisplay:10.37,2013-03-16 00:46:00,
2013-03-15 20:51:00,51.7,37.8,30.03,SSE,163,3.9,8.1,59,0.00,CLR,OVC,0.00,0.0,WeatherDisplay:10.37,2013-03-16 00:51:00,
2013-03-15 20:56:00,51.7,38.3,30.03,SSW,195,3.3,5.8,60,0.00,CLR,OVC,0.00,0.0,WeatherDisplay:10.37,2013-03-16 00:56:00,
2013-03-15 21:01:00,51.7,38.7,30.03,SSW,192,3.8,8.1,61,0.00,CLR,OVC,0.00,0.0,WeatherDisplay:10.37,2013-03-16 01:01:00,
2013-03-15 21:06:00,51.7,39.1,30.03,South,191,3.0,5.8,62,0.00,CLR,OVC,0.00,0.0,WeatherDisplay:10.37,2013-03-16 01:06:00,
2013-03-15 21:11:00,51.6,39.0,30.02,South,172,6.3,10.4,62,0.00,CLR,OVC,0.00,0.0,WeatherDisplay:10.37,2013-03-16 01:11:00,
2013-03-15 21:16:00,51.7,39.5,30.02,SW,223,3.5,6.9,63,0.00,CLR,OVC,0.00,0.0,WeatherDisplay:10.37,2013-03-16 01:16:00,
2013-03-15 21:21:00,51.8,39.6,30.02,SSE,168,5.1,9.2,63,0.00,CLR,OVC,0.00,0.0,WeatherDisplay:10.37,2013-03-16 01:21:00,
2013-03-15 21:26:00,51.8,40.0,30.02,SW,228,4.7,9.2,64,0.00,CLR,OVC,0.00,0.0,WeatherDisplay:10.37,2013-03-16 01:26:00,
2013-03-15 21:31:00,51.9,40.5,30.02,South,173,3.2,9.2,65,0.00,CLR,OVC,0.00,0.0,WeatherDisplay:10.37,2013-03-16 01:31:00,
2013-03-15 21:36:00,51.9,40.5,30.02,SSW,209,4.3,10.4,65,0.00,CLR,OVC,0.00,0.0,WeatherDisplay:10.37,2013-03-16 01:36:00,
2013-03-15 21:41:00,51.9,40.5,30.02,SSW,209,4.4,7.0,65,0.00,CLR,OVC,0.00,0.0,WeatherDisplay:10.37,2013-03-16 01:41:00,
2013-03-15 21:47:00,52.1,40.7,30.02,SSW,212,4.7,9.2,65,0.00,CLR,OVC,0.00,0.0,WeatherDisplay:10.37,2013-03-16 01:47:00,
2013-03-15 21:52:00,52.1,41.1,30.02,SSW,194,4.3,8.1,66,0.00,CLR,OVC,0.00,0.0,WeatherDisplay:10.37,2013-03-16 01:52:00,
2013-03-15 21:57:00,52.1,41.1,30.02,SSW,192,2.5,6.9,66,0.00,CLR,OVC,0.00,0.0,WeatherDisplay:10.37,2013-03-16 01:57:00,
2013-03-15 22:02:00,52.1,41.5,30.02,SSW,201,3.6,7.0,67,0.00,CLR,OVC,0.00,0.0,WeatherDisplay:10.37,2013-03-16 02:02:00,
2013-03-15 22:07:00,52.3,41.7,30.02,SW,226,3.7,9.2,67,0.00,CLR,OVC,0.00,0.0,WeatherDisplay:10.37,2013-03-16 02:07:00,
2013-03-15 22:12:00,52.3,41.7,30.02,South,177,2.3,8.1,67,0.00,CLR,OVC,0.00,0.0,WeatherDisplay:10.37,2013-03-16 02:12:00,
2013-03-15 22:17:00,52.4,41.8,30.02,SSW,212,4.8,7.0,67,0.00,CLR,OVC,0.00,0.0,WeatherDisplay:10.37,2013-03-16 02:17:00,
2013-03-15 22:23:00,52.5,41.9,30.02,South,175,2.1,9.2,67,0.00,CLR,OVC,0.00,0.0,WeatherDisplay:10.37,2013-03-16 02:23:00,
2013-03-15 22:28:00,52.7,42.0,30.02,SW,215,2.4,6.9,67,0.00,CLR,OVC,0.00,0.0,WeatherDisplay:10.37,2013-03-16 02:28:00,
2013-03-15 22:33:00,52.8,42.1,30.02,SW,229,5.6,11.0,67,0.00,CLR,OVC,0.00,0.0,WeatherDisplay:10.37,2013-03-16 02:33:00,
2013-03-15 22:38:00,53.0,42.3,30.02,SW,227,2.7,5.8,67,0.00,CLR,OVC,0.00,0.0,WeatherDisplay:10.37,2013-03-16 02:38:00,
2013-03-15 22:43:00,53.1,42.4,30.02,South,187,6.7,11.5,67,0.00,CLR,OVC,0.00,0.0,WeatherDisplay:10.37,2013-03-16 02:43:00,
2013-03-15 22:48:00,53.1,42.4,30.02,SSW,205,3.5,6.9,67,0.00,CLR,OVC,0.00,0.0,WeatherDisplay:10.37,2013-03-16 02:48:00,
2013-03-15 22:53:00,53.2,42.5,30.02,WSW,240,3.9,8.1,67,0.00,CLR,OVC,0.00,0.0,WeatherDisplay:10.37,2013-03-16 02:53:00,
2013-03-15 22:58:00,53.3,42.6,30.02,SW,225,5.4,10.4,67,0.00,CLR,OVC,0.00,0.0,WeatherDisplay:10.37,2013-03-16 02:58:00,
2013-03-15 23:03:00,53.3,42.6,30.02,SSW,212,5.7,10.4,67,0.00,CLR,OVC,0.00,0.0,WeatherDisplay:10.37,2013-03-16 03:03:00,
2013-03-15 23:08:00,53.4,42.7,30.02,SW,216,3.6,11.5,67,0.00,CLR,OVC,0.00,0.0,WeatherDisplay:10.37,2013-03-16 03:08:00,
2013-03-15 23:13:00,53.5,42.8,30.01,SSW,192,4.1,9.2,67,0.00,CLR,OVC,0.00,0.0,WeatherDisplay:10.37,2013-03-16 03:13:00,
2013-03-15 23:18:00,53.7,43.0,30.01,SSW,213,2.2,8.1,67,0.00,CLR,OVC,0.00,0.0,WeatherDisplay:10.37,2013-03-16 03:18:00,
2013-03-15 23:23:00,53.7,43.0,30.01,SW,225,5.3,8.1,67,0.00,CLR,OVC,0.00,0.0,WeatherDisplay:10.37,2013-03-16 03:23:00,
2013-03-15 23:28:00,53.8,42.7,30.01,SSW,211,3.1,5.8,66,0.00,CLR,OVC,0.00,0.0,WeatherDisplay:10.37,2013-03-16 03:28:00,
2013-03-15 23:33:00,53.9,43.2,30.01,SSW,195,5.7,8.0,67,0.00,CLR,OVC,0.00,0.0,WeatherDisplay:10.37,2013-03-16 03:33:00,
2013-03-15 23:38:00,54.0,42.9,30.01,WSW,239,3.9,9.0,66,0.00,CLR,OVC,0.00,0.0,WeatherDisplay:10.37,2013-03-16 03:38:00,
2013-03-15 23:43:00,54.0,42.9,30.01,South,180,3.9,11.5,66,0.00,CLR,OVC,0.00,0.0,WeatherDisplay:10.37,2013-03-16 03:43:00,
2013-03-15 23:48:00,54.1,43.0,30.01,SW,227,7.3,10.0,66,0.00,CLR,OVC,0.00,0.0,WeatherDisplay:10.37,2013-03-16 03:48:00,
2013-03-15 23:53:00,54.2,43.1,30.01,SW,219,0.7,8.1,66,0.00,CLR,OVC,0.00,0.0,WeatherDisplay:10.37,2013-03-16 03:53:00,
2013-03-15 23:58:00,54.2,43.1,30.01,SSW,193,5.0,8.1,66,0.00,CLR,OVC,0.00,0.0,WeatherDisplay:10.37,2013-03-16 03:58:00,